User: anonymous
Location: Unspecified
(0.0000°N, 0.0000°E)
Time: 13:43:12
(UTC+00:00)
Language:

HO-68 - Orbit

View from above orbital plane
View from above orbital plane
View from above satellite
View from above satellite

Ground track
Ground track

The orbit data is extracted from the following two-line orbital elements,

1 36122U 09072B   14234.08361244 -.00000043  00000-0  00000+0 0  8732
2 36122 100.2419 283.9353 0007698 088.4789 271.7226 13.16317657225107
Epoch (UTC): 22 August 2014 02:00:24
Eccentricity: 0.0007698
inclination: 100.2419°
perigee height: 1193 km
apogee height: 1204 km
right ascension of ascending node: 283.9353°
argument of perigee: 88.4789°
revolutions per day: 13.16317657
mean anomaly at epoch: 271.7226°
orbit number at epoch: 22510

The dashed part of the orbit path shows where the satellite is in the earth's shadow,  

DLR